User: anonymous   Login
Location: Aiyekoto
(8.4333°N, 4.3667°E)
Time: 13:57:07
(UTC+00:00)
Language:

ATLAS 5 CENTAUR R/B - Orbit

View from above orbital plane
View from above orbital plane
View from above satellite
View from above satellite

Ground track
Ground track

The orbit data is extracted from the following two-line orbital elements,

1 31702U 07027B   21002.23325123 0.00000160  00000-0  30270-4 0    01
2 31702  63.3616  43.8103 0428250  17.4242 342.5758 14.18856226    07
Epoch (UTC): 02 January 2021 05:35:52
Eccentricity: 0.0428250
inclination: 63.3616°
perigee height: 520 km
apogee height: 1138 km
right ascension of ascending node: 43.8103°
argument of perigee: 17.4242°
revolutions per day: 14.18856226
mean anomaly at epoch: 342.5758°
orbit number at epoch: 0

The dashed part of the orbit path shows where the satellite is in the earth's shadow,  

DLR